EHI
0 0 0 0 0 0 0 0 0 0 0 0 0 0 0 0 0 0 0 0 0 0 0 0 0 0 0 0 0 0 0 0 0 0 0 0 0 0 0 0 0 0 0 0
0 0 0 0 0 0 0 0 0 0 0 0 0 0 0 0 0 0 0 0 0 0 0 0 0 0 0 0 0 0 0 0 0 0 0 0 0 0 0 0 0 0 0 0
0 0 0 0 0 0 0 0 0 0 0 0 0 0 0 0 0 0 0 0 0 0 0 0 0 0 0 0 0 0 0 0 0 0 0 0 0 0 0 0 0 0 0 0
0 0 0 0 0 0 0 0 0 0 0 0 0 0 0 0 0 0 0 0 0 0 0 0 0 0 0 0 0 0 0 0 0 0 0 0 0 0 0 0 0 0 0 0
0 0 0 0 0 0 0 0 0 0 0 0 0 0 0 0 0 0 0 0 0 0 0 0 0 0 0 0 0 0 0 0 0 0 0 0 0 0 0 0 0 0 0 0
0 0 0 0 0 0 0 0 0 0 0 0 0 0 0 0 0 0 0 0 0 0 0 0 0 0 0 0 0 0 0 0 0 0 0 0 0 0 0 0 0 0 0 0
0 0 0 0 0 0 0 0 0 0 0 0 0 0 0 0 0 0 0 0 0 0 0 0 0 0 0 0 0 0 0 0 0 0 0 0 0 0 0 0 0 0 0 0
0 0 0 0 0 0 0 0 0 0 0 0 0 0 0 0 0 0 0 0 0 0 0 0 0 0 0 0 0 0 0 0 0 0 0 0 0 0 0 0 0 0 0 0
0 0 0 0 0 0 0 0 0 0 0 0 0 0 0 0 0 0 0 0 0 0 0 0 0 0 0 0 0 0 0 0 0 0 0 0 0 0 0 0 0 0 0 0
0 0 0 0 0 0 0 0 0 0 0 0 0 0 0 0 0 0 0 0 0 0 0 0 0 0 0 0 0 0 0 0 0 0 0 0 0 0 0 0 0 0 0 0
0 0 0 0 0 0 0 0 0 0 0 0 0 0 0 0 0 0 0 0 0 0 0 0 0 0 0 0 0 0 0 0 0 0 0 0 0 0 0 0 0 0 0 0
0 0 0 0 0 0 0 0 0 0 0 0 0 0 0 0 0 0 0 0 0 0 0 0 0 0 0 0 0 0 0 0 0 0 0 0 0 0 0 0 0 0 0 0
0 0 0 0 0 0 0 0 0 0 0 0 0 0 0 0 0 0 0 0 0 0 0 0 0 0 0 0 0 0 0 0 0 0 0 0 0 0 0 0 0 0 0 0
0 0 0 0 0 0 0 0 0 0 0 0 0 0 0 0 0 0 0 0 0 0 0 0 0 0 0 0 0 0 0 0 0 0 0 0 0 0 0 0 0 0 0 0
0 0 0 0 0 0 0 0 0 0 0 0 0 0 0 0 0 0 0 0 0 0 0 0 0 0 0 0 0 0 0 0 0 0 0 0 0 0 0 0 0 0 0 0
0 0 0 0 0 0 0 0 0 0 0 0 0 0 0 0 0 0 0 0 0 0 0 0 0 0 0 0 0 0 0 0 0 0 0 0 0 0 0 0 0 0 0 0
0 0 0 0 0 0 0 0 0 0 0 0 0 0 0 0 0 0 0 0 0 0 0 0 0 0 0 0 0 0 0 0 0 0 0 0 0 0 0 0 0 0 0 0
0 0 0 0 0 0 0 0 0 0 0 0 0 0 0 0 0 0 0 0 0 0 0 0 0 0 0 0 0 0 0 0 0 0 0 0 0 0 0 0 0 0 0 0
0 0 0 0 0 0 0 0 0 0 0 0 0 0 0 0 0 0 0 0 0 0 0 0 0 0 0 0 0 0 0 0 0 0 0 0 0 0 0 0 0 0 0 0
0 0 0 0 0 0 0 0 0 0 0 0 0 0 0 0 0 0 0 0 0 0 0 0 0 0 0 0 0 0 0 0 0 0 0 0 0 0 0 0 0 0 0 0
0 0 0 0 0 0 0 0 0 0 0 0 0 0 0 0 0 0 0 0 0 0 0 0 0 0 0 0 0 0 0 0 0 0 0 0 0 0 0 0 0 0 0 0
0 0 0 0 0 0 0 0 0 0 0 0 0 0 0 0 0 0 0 0 0 0 0 0 0 0 0 0 0 0 0 0 0 0 0 0 0 0 0 0 0 0 0 0
0 0 0 0 0 0 0 0 0 0 0 0 0 0 0 0 0 0 0 0 0 0 0 0 0 0 0 0 0 0 0 0 0 0 0 0 0 0 0 0 0 0 0 0
0 0 0 0 0 0 0 0 0 0 0 0 0 0 0 0 0 0 0 0 0 0 0 0 0 0 0 0 0 0 0 0 0 0 0 0 0 0 0 0 0 0 0 0
0 0 0 0 0 0 0 0 0 0 0 0 0 0 0 0 0 0 0 0 0 0 0 0 0 0 0 0 0 0 0 0 0 0 0 0 0 0 0 0 0 0 0 0
0 0 0 0 0 0 0 0 0 0 0 0 0 0 0 0 0 0 0 0 0 0 0 0 0 0 0 0 0 0 0 0 0 0 0 0 0 0 0 0 0 0 0 0
0 0 0 0 0 0 0 0 0 0 0 0 0 0 0 0 0 0 0 0 0 0 0 0 0 0 0 0 0 0 0 0 0 0 0 0 0 0 0 0 0 0 0 0
Wind_Speed
9 9 6 9 13 11 14 14 15 16 18 27 17 8 9 9 9 9 10 10 11 12 12 12 13 14 14 15 14 13 13 13 13 10 9 8 7 7 6 6 7 6 6 7
7 7 7 9 17 17 18 16 18 20 24 25 11 5 8 10 10 10 11 12 12 12 13 14 16 16 15 15 15 14 14 14 11 10 9 9 8 7 6 6 6 6 7 8
6 5 6 11 16 15 9 10 11 18 21 14 9 10 10 9 9 11 13 12 12 13 15 16 17 17 18 17 14 14 14 13 11 11 11 10 9 7 7 7 6 6 7 7
4 3 10 13 5 6 9 12 13 14 15 11 10 8 8 9 11 14 13 12 12 11 12 14 13 13 12 12 14 15 14 13 12 12 11 10 9 9 8 6 6 6 7 7
3 5 12 13 9 5 7 11 11 15 18 15 6 5 10 11 10 13 13 12 11 10 10 9 11 12 12 13 13 14 15 15 14 13 12 11 11 10 7 6 6 6 6 7
4 5 11 12 3 2 2 10 9 8 11 9 2 2 9 9 7 9 10 9 9 8 6 9 10 11 13 15 15 18 18 16 14 13 13 12 11 9 7 6 7 6 6 6
8 9 14 12 2 4 4 10 4 3 6 5 7 11 10 9 9 10 11 11 9 7 8 10 9 12 15 16 20 18 14 13 13 13 13 11 9 8 7 7 6 5 6 6
7 8 16 8 7 10 12 5 4 4 5 7 10 12 13 13 13 12 12 12 9 8 10 8 9 13 16 19 17 12 13 14 14 13 11 10 9 8 7 7 6 6 5 5
15 14 7 6 12 8 3 6 8 8 10 10 11 14 15 13 13 12 12 11 9 9 10 7 10 15 18 16 11 13 14 14 13 13 11 10 10 9 7 6 5 5 5 5
9 12 11 10 10 11 12 13 14 13 13 12 14 15 15 14 12 11 11 10 8 8 10 11 11 15 16 10 12 14 15 14 12 12 11 11 9 8 7 7 6 6 5 5
11 9 9 11 10 11 12 11 12 13 12 11 12 13 13 12 11 11 10 9 7 8 11 13 10 13 12 10 13 15 14 13 13 12 12 11 10 9 9 8 8 7 6 5
19 13 12 14 11 11 12 13 13 13 12 9 8 11 11 10 10 9 10 10 9 9 11 11 9 11 12 12 14 15 14 13 11 11 10 9 9 8 14 12 14 15 13 9
22 18 16 15 13 11 10 11 11 9 9 9 8 7 8 8 8 9 10 10 10 11 11 10 9 10 11 13 14 16 15 14 11 11 11 11 10 9 8 9 14 14 14 13
14 12 13 12 11 10 9 8 7 6 6 7 7 7 8 8 9 11 12 11 11 11 11 9 9 10 10 13 15 15 13 15 13 11 11 11 10 9 8 8 7 5 8 11
11 10 10 8 7 7 7 6 7 8 8 8 8 8 9 11 12 13 13 12 11 11 10 9 9 10 9 13 15 15 13 10 11 10 10 10 9 9 8 8 7 5 3 5
6 4 4 4 5 6 6 6 7 8 8 9 9 10 11 11 13 14 13 11 10 12 12 10 11 10 9 13 14 13 12 18 15 10 10 10 9 9 9 8 7 6 6 5
2 3 4 5 5 6 5 6 7 8 9 10 11 12 11 12 13 14 13 11 10 12 12 11 12 8 9 13 14 11 10 13 21 12 9 10 10 10 9 8 8 7 6 7
2 1 0 2 4 6 8 8 8 9 10 11 12 11 11 13 14 15 15 13 13 13 12 10 9 7 8 11 12 9 10 10 10 10 10 9 10 9 9 8 9 8 5 6
1 1 3 5 6 6 8 9 10 10 11 11 11 12 13 13 13 14 13 12 13 15 12 8 11 8 8 12 14 8 10 10 10 9 9 13 12 9 9 9 8 8 7 6
3 4 5 6 7 7 9 10 10 10 11 10 12 13 14 14 13 13 12 12 11 10 10 10 8 6 7 10 16 8 10 11 11 11 10 10 10 10 9 9 9 8 8 7
6 7 8 8 9 9 10 11 11 13 13 12 12 14 15 15 13 12 11 13 12 9 9 13 7 5 6 9 16 9 10 11 11 10 11 10 10 10 10 9 9 9 8 7
7 8 9 10 11 12 11 10 11 13 13 13 13 13 14 15 14 12 11 11 12 14 10 6 6 8 9 12 9 9 10 11 10 9 10 10 10 10 10 10 9 8 8 7
8 9 10 11 12 13 13 12 11 12 13 14 14 14 14 13 11 11 13 9 8 14 10 7 10 14 14 9 7 10 11 12 11 10 10 10 10 10 9 10 9 8 8 7
10 11 11 12 11 11 14 13 12 11 12 13 13 13 13 12 11 9 10 15 17 18 10 11 16 16 13 6 8 9 10 11 10 9 9 9 8 8 8 8 8 7 7 8
10 11 11 11 11 11 12 13 12 12 12 10 11 12 10 9 10 11 10 11 16 17 10 12 16 14 8 6 8 9 10 10 9 9 9 9 9 8 8 8 8 8 8 8
10 10 10 10 11 10 10 9 10 10 10 12 11 9 9 8 10 10 10 11 13 15 11 7 6 7 5 6 8 10 9 10 12 11 9 9 9 8 8 8 9 8 8 7
10 9 8 9 9 8 8 9 10 11 10 11 13 12 11 10 10 10 10 10 9 8 7 6 5 5 5 6 8 9 9 9 9 8 9 8 8 7 8 9 8 7 7 7
Wind_Direction
254 258 246 244 247 222 212 217 226 247 249 263 270 253 254 260 266 265 259 247 233 227 222 214 210 207 205 202 197 192 192 198 206 203 201 204 211 216 222 231 244 248 258 266
274 264 251 259 256 243 234 233 239 256 266 266 278 261 262 266 264 261 258 252 243 232 224 218 214 210 205 203 197 191 195 201 200 194 198 205 211 215 223 234 244 251 257 266
268 298 333 271 246 232 219 217 212 238 251 273 282 266 261 263 257 253 259 259 250 236 227 223 216 208 205 202 191 191 197 198 194 194 201 207 210 214 223 232 241 252 258 263
271 338 244 246 249 218 226 244 226 243 260 267 253 267 265 254 254 263 263 261 256 243 232 226 216 207 201 189 189 193 197 196 193 193 201 203 206 217 225 227 236 248 257 261
203 253 274 287 275 211 212 272 237 236 256 265 278 315 288 263 238 243 253 255 255 245 233 222 208 196 184 189 191 196 199 198 195 193 197 200 210 218 220 222 236 243 250 258
185 219 249 252 244 143 132 283 263 217 245 264 103 299 275 275 271 261 263 263 262 257 234 222 205 178 184 194 196 204 203 198 192 192 196 203 210 213 212 218 233 242 251 254
212 232 259 259 217 139 205 251 281 213 237 240 206 229 255 283 284 276 274 272 266 250 236 228 191 177 195 200 208 207 195 189 188 191 197 202 205 207 208 218 229 238 252 259
186 211 253 230 157 195 224 265 294 280 261 256 254 266 275 280 280 281 280 277 264 250 247 227 184 187 204 213 211 188 181 185 188 190 193 196 199 205 206 211 225 239 249 262
199 219 246 188 209 237 283 283 277 277 281 280 278 278 281 281 281 283 279 276 264 249 253 231 198 199 214 217 189 178 182 187 188 188 192 192 194 200 202 205 216 232 235 252
249 258 262 263 258 265 261 260 270 275 278 280 277 281 285 286 286 286 284 280 274 259 252 244 215 213 223 205 176 179 186 188 186 188 191 193 195 199 201 203 209 220 229 239
259 269 285 266 256 263 274 276 278 280 278 275 275 279 281 287 288 286 286 285 275 257 255 253 228 219 217 191 177 184 188 188 188 190 190 193 199 203 203 205 201 204 214 219
264 269 268 279 279 281 284 287 289 293 295 293 281 282 289 291 290 291 293 292 287 272 263 261 238 224 210 193 186 186 189 190 188 187 188 190 194 206 220 214 223 228 225 221
260 270 270 279 286 292 291 296 300 303 300 303 304 297 298 295 295 297 295 295 289 281 273 266 244 228 206 193 192 195 195 190 187 186 186 187 189 193 200 216 225 229 233 237
259 272 278 281 286 299 304 306 313 320 318 312 307 309 308 301 301 303 299 295 291 287 280 268 250 234 205 192 195 200 199 195 189 187 186 186 187 190 190 187 197 216 228 234
264 265 271 288 308 323 326 331 336 333 327 323 317 314 312 309 304 300 298 297 295 290 283 271 256 243 202 192 197 199 197 195 190 184 184 184 182 182 185 187 192 190 186 222
289 315 330 336 331 329 334 338 331 320 315 310 308 307 302 297 294 294 294 294 294 293 289 276 264 249 204 195 197 199 200 201 189 183 182 180 179 181 185 186 190 193 198 199
301 325 335 334 329 323 319 310 300 296 299 299 297 296 297 298 300 300 300 297 287 284 282 272 266 249 207 196 195 196 192 199 197 188 185 183 181 183 185 184 188 195 199 198
100 135 275 283 291 299 300 298 294 292 290 289 292 295 297 300 300 300 301 302 300 295 285 271 263 246 214 200 196 192 188 189 188 184 184 184 183 183 183 185 189 191 189 202
21 285 274 273 274 277 282 288 289 286 288 292 296 297 295 293 291 293 297 300 299 298 294 280 276 257 220 207 197 191 186 186 186 183 182 189 186 182 185 187 189 189 186 188
290 284 285 286 287 284 287 289 292 296 298 299 298 299 299 298 296 297 299 293 282 276 280 284 280 256 226 210 202 190 188 187 188 185 184 186 184 184 187 188 188 186 187 188
304 305 304 302 301 297 293 295 300 302 300 297 294 294 294 294 294 293 294 296 292 285 284 286 277 252 222 210 204 189 187 188 189 186 186 187 186 184 186 187 187 188 187 186
300 300 300 300 301 302 301 297 294 293 295 295 292 291 293 295 295 291 278 274 284 293 294 278 268 253 235 215 198 186 188 189 190 187 186 187 187 186 187 186 187 188 185 181
291 291 293 295 296 296 297 294 290 289 290 291 292 292 290 289 290 291 294 288 286 294 295 275 273 268 248 217 193 188 188 190 191 190 189 189 189 189 187 185 187 184 179 177
287 288 287 288 290 292 294 294 291 288 285 284 282 280 281 288 288 275 272 287 295 297 291 282 282 274 251 207 188 189 189 191 191 190 188 186 187 188 186 183 182 179 176 174
281 283 286 291 293 291 290 293 295 293 290 288 286 282 276 272 278 287 289 286 290 296 292 287 285 274 251 199 188 188 188 190 189 186 186 185 186 186 185 183 180 176 175 176
281 283 283 279 279 283 287 290 292 294 296 297 296 291 286 281 276 280 285 284 282 288 288 281 273 262 236 200 188 186 185 190 196 194 187 185 186 184 183 184 177 174 173 172
280 279 282 284 281 276 278 283 288 291 292 293 296 297 293 291 288 287 286 286 286 284 281 274 261 248 230 202 188 184 182 184 186 184 182 183 182 183 183 180 176 170 166 166